"startDT [UTC]","vpos","CH4 [ppm]","stdev(CH4) [ppm]","CO2 [ppm]","stdev(CO2) [ppm]","H2O [ppm]","stdev(H2O)","p_LGR [torr]","T_LGR [C]","mt1_LGR [us]","mt2_LGR [us]","T_ECpre [C]","T_EC1 [C]","T_EC2 [C]","p_inlet [hPa]","p_in [hPa]","p_out [hPa]","T_inlet [C]","RH_inlet [%]","dwpt_inlet [C]","T_vent [C]","RH_vent [%]","dwpt_vent [C]","flow_vent [l min-1]","flow_inlet [l min-1]","dwpt_sample [C]","T_room [C]"
2012-05-28 00:00:00,0.0,1.9018,0.0008,403.98,0.21,2.6,9.9,138.06,30.12,24.64,36.47,1.02,-26.75,-25.09,-56,537,-928,23.1,20.6,-0.7,22.9,1.6,-31.1,5.73,2.39,-28.9,27.7
2012-05-28 00:01:00,0.0,1.9016,0.0009,403.98,0.19,2.2,9.4,138.07,30.12,24.64,36.46,1.04,-26.76,-25.41,-56,537,-928,23.1,20.4,-0.8,22.9,1.6,-31.1,5.73,2.39,-28.9,27.7
2012-05-28 00:02:00,0.0,1.9017,0.0010,403.90,0.17,5.3,13.8,138.07,30.12,24.65,36.48,0.98,-26.78,-25.72,-56,537,-928,23.1,20.2,-1.0,22.9,1.6,-31.1,5.73,2.39,-28.9,27.7
2012-05-28 00:03:00,0.0,1.9019,0.0010,403.86,0.19,4.9,16.4,138.07,30.12,24.64,36.47,0.95,-26.79,-26.00,-56,537,-927,23.1,20.0,-1.1,22.9,1.6,-31.1,5.73,2.39,-28.9,27.7
2012-05-28 00:04:00,0.0,1.9021,0.0008,403.86,0.17,4.0,10.4,138.07,30.12,24.64,36.47,0.97,-26.81,-26.27,-56,537,-928,23.1,19.9,-1.1,22.9,1.6,-31.1,5.73,2.39,-28.9,27.7
2012-05-28 00:05:00,0.0,1.9016,0.0008,403.89,0.20,4.7,12.4,138.07,30.12,24.64,36.47,1.03,-26.82,-26.52,-56,537,-928,23.1,20.2,-1.0,22.9,1.6,-31.1,5.73,2.38,-28.9,27.7
2012-05-28 00:06:00,0.0,1.9020,0.0008,403.80,0.23,3.8,10.8,138.07,30.12,24.64,36.48,1.03,-26.83,-26.76,-56,537,-928,23.1,20.3,-0.8,23.0,1.6,-31.1,5.73,2.39,-28.9,27.7
2012-05-28 00:07:00,0.0,1.9019,0.0007,403.89,0.21,3.8,10.8,138.07,30.12,24.64,36.47,0.94,-26.85,-26.73,-56,537,-928,23.1,20.4,-0.8,22.9,1.6,-31.1,5.73,2.38,-28.9,27.7
2012-05-28 00:08:00,0.0,1.9018,0.0009,403.90,0.18,3.2,7.8,138.07,30.12,24.64,36.47,1.01,-26.86,-26.61,-56,537,-928,23.1,20.5,-0.8,22.9,1.6,-31.1,5.73,2.38,-28.9,27.7
2012-05-28 00:09:00,0.0,1.9019,0.0010,403.98,0.21,4.7,10.8,138.07,30.12,24.64,36.47,0.95,-26.87,-26.78,-56,537,-928,23.1,20.5,-0.7,22.9,1.6,-31.1,5.73,2.38,-29.0,27.7
2012-05-28 00:10:00,0.0,1.9020,0.0010,403.96,0.20,2.2,8.3,138.07,30.12,24.64,36.47,0.90,-26.88,-26.82,-56,537,-928,23.1,20.2,-0.9,22.9,1.6,-31.1,5.73,2.39,-29.0,27.7
2012-05-28 00:11:00,0.0,1.9017,0.0008,403.88,0.19,6.3,14.3,138.07,30.12,24.64,36.48,0.99,-26.90,-26.63,-56,537,-928,23.1,20.5,-0.7,22.9,1.6,-31.1,5.73,2.39,-29.0,27.7
2012-05-28 00:12:00,0.0,1.9021,0.0010,403.86,0.18,3.4,8.5,138.07,30.12,24.64,36.48,1.02,-26.91,-26.78,-56,537,-928,23.1,20.5,-0.8,22.9,1.6,-31.3,5.73,2.39,-29.0,27.8
2012-05-28 00:13:00,0.0,1.9020,0.0010,403.94,0.21,1.9,7.8,138.07,30.11,24.64,36.47,1.00,-26.92,-26.91,-56,537,-928,23.1,20.5,-0.8,22.9,1.6,-31.3,5.73,2.39,-29.0,27.7
2012-05-28 00:14:00,0.0,1.9017,0.0009,403.88,0.19,2.3,7.9,138.07,30.11,24.64,36.48,1.01,-26.93,-26.67,-56,537,-928,23.1,20.3,-0.9,22.9,1.6,-31.3,5.73,2.40,-29.0,27.7
2012-05-28 00:15:00,0.0,1.9022,0.0009,403.89,0.19,3.0,8.3,138.07,30.11,24.64,36.48,0.97,-26.94,-26.77,-56,537,-928,23.1,20.5,-0.7,22.9,1.6,-31.3,5.73,2.39,-29.0,27.7
2012-05-28 00:16:00,0.0,1.9018,0.0008,403.88,0.16,4.8,10.6,138.07,30.11,24.64,36.47,0.93,-26.95,-26.95,-56,537,-928,23.1,20.6,-0.7,22.9,1.6,-31.3,5.73,2.39,-29.0,27.7
2012-05-28 00:17:00,0.0,1.9016,0.0009,403.88,0.21,1.9,7.9,138.07,30.11,24.64,36.47,0.97,-26.96,-26.72,-56,537,-928,23.1,20.3,-0.9,22.9,1.6,-31.3,5.73,2.38,-29.0,27.6
2012-05-28 00:18:00,0.0,1.9017,0.0009,403.85,0.18,3.6,10.9,138.07,30.11,24.64,36.48,0.97,-26.97,-26.76,-56,537,-928,23.1,20.4,-0.8,22.9,1.6,-31.3,5.73,2.38,-29.0,27.7
2012-05-28 00:19:00,0.0,1.9018,0.0010,403.91,0.18,4.8,10.8,138.07,30.11,24.64,36.47,1.00,-26.98,-26.95,-56,537,-928,23.1,20.1,-1.0,22.9,1.6,-31.3,5.73,2.38,-29.0,27.7
2012-05-28 00:20:00,0.0,1.9020,0.0008,403.92,0.17,6.3,15.2,138.07,30.11,24.64,36.47,0.94,-26.98,-26.82,-56,537,-928,23.1,20.5,-0.7,22.9,1.6,-31.3,5.73,2.38,-28.9,27.7
2012-05-28 00:21:00,0.0,1.9018,0.0009,403.95,0.19,5.8,13.5,138.07,30.11,24.64,36.47,0.99,-26.94,-26.75,-56,537,-928,23.1,20.4,-0.8,22.9,1.6,-31.2,5.73,2.38,-28.9,27.6
2012-05-28 00:22:00,0.0,1.9023,0.0009,404.00,0.20,5.2,10.9,138.07,30.11,24.64,36.47,0.85,-25.88,-26.92,-56,537,-928,23.1,20.3,-0.8,22.9,1.6,-31.0,5.73,2.39,-28.9,27.7
2012-05-28 00:23:00,0.0,1.9022,0.0008,403.90,0.21,4.7,12.9,138.07,30.11,24.64,36.47,0.90,-24.01,-27.08,-56,537,-928,23.1,20.4,-0.8,22.9,1.8,-30.1,5.73,2.39,-29.0,27.7
2012-05-28 00:24:00,0.0,1.9026,0.0009,403.92,0.16,2.9,8.9,138.07,30.11,24.64,36.47,0.94,-22.07,-27.19,-56,537,-928,23.1,20.7,-0.6,22.9,1.9,-29.4,5.73,2.39,-29.0,27.7
2012-05-28 00:25:00,0.0,1.9019,0.0010,403.92,0.20,4.3,12.0,138.07,30.11,24.65,36.47,0.95,-20.17,-27.27,-56,537,-928,23.1,20.8,-0.5,22.9,2.0,-29.1,5.73,2.40,-29.0,27.7
2012-05-28 00:26:00,0.0,1.9020,0.0008,403.86,0.18,4.2,14.3,138.07,30.11,24.64,36.47,0.90,-18.36,-27.32,-56,537,-927,23.1,20.5,-0.7,22.9,2.0,-29.0,5.73,2.39,-29.0,27.7
2012-05-28 00:27:00,0.0,1.9020,0.0008,403.84,0.20,5.7,13.0,138.07,30.11,24.64,36.48,0.82,-16.62,-27.36,-56,537,-928,23.1,20.3,-0.9,22.9,2.0,-29.0,5.73,2.39,-29.0,27.6
2012-05-28 00:28:00,0.0,1.9019,0.0009,403.83,0.19,3.3,11.1,138.07,30.11,24.64,36.48,0.85,-15.00,-27.40,-56,537,-928,23.1,20.3,-0.9,22.9,2.0,-29.1,5.73,2.38,-29.0,27.6
2012-05-28 00:29:00,0.0,1.9021,0.0008,403.93,0.18,4.1,12.7,138.07,30.11,24.64,36.47,0.91,-13.45,-27.43,-56,537,-928,23.1,20.1,-1.0,22.9,1.9,-29.3,5.73,2.38,-29.0,27.6
2012-05-28 00:30:00,0.0,1.9020,0.0009,403.91,0.15,4.1,11.2,138.07,30.11,24.64,36.47,0.94,-11.97,-27.44,-56,537,-928,23.1,20.6,-0.7,22.9,1.9,-29.5,5.73,2.37,-29.0,27.6
2012-05-28 00:31:00,0.0,1.9017,0.0007,403.87,0.16,6.1,13.9,138.07,30.11,24.64,36.47,0.96,-10.57,-27.46,-56,537,-928,23.1,20.8,-0.6,22.9,1.9,-29.6,5.73,2.38,-29.0,27.6
2012-05-28 00:32:00,0.0,1.9021,0.0008,403.99,0.19,5.0,11.6,138.07,30.10,24.64,36.47,0.90,-9.25,-27.48,-56,537,-928,23.1,20.4,-0.9,22.9,1.8,-29.7,5.73,2.39,-29.0,27.6
2012-05-28 00:33:00,0.0,1.9021,0.0009,403.87,0.19,5.7,13.5,138.07,30.10,24.64,36.48,0.85,-7.99,-27.49,-56,537,-928,23.1,20.1,-1.1,22.9,1.8,-29.9,5.73,2.39,-29.0,27.7
2012-05-28 00:34:00,0.0,1.9019,0.0008,403.85,0.18,3.9,11.3,138.07,30.10,24.64,36.48,0.88,-6.79,-27.50,-56,537,-928,23.1,20.3,-0.9,22.9,1.8,-29.9,5.73,2.39,-29.0,27.7
2012-05-28 00:35:00,0.0,1.9018,0.0009,403.91,0.21,2.9,9.0,138.07,30.10,24.65,36.47,0.89,-5.64,-27.51,-56,537,-928,23.1,20.3,-0.9,22.9,1.8,-30.1,5.73,2.39,-29.0,27.8
2012-05-28 00:36:00,0.0,1.9021,0.0009,403.98,0.21,5.2,12.3,138.07,30.10,24.64,36.47,0.92,-4.55,-27.52,-56,537,-928,23.1,20.3,-0.9,22.9,1.8,-30.2,5.73,2.39,-29.0,27.8
2012-05-28 00:37:00,0.0,1.9017,0.0008,403.94,0.17,2.7,7.8,138.07,30.10,24.65,36.47,0.93,-3.52,-27.53,-56,537,-928,23.1,20.8,-0.6,22.9,1.8,-30.3,5.73,2.38,-29.0,27.7
2012-05-28 00:38:00,0.0,1.9020,0.0009,403.84,0.21,3.8,9.8,138.07,30.10,24.64,36.48,0.95,-2.53,-27.53,-56,537,-927,23.1,20.8,-0.6,22.9,1.7,-30.3,5.73,2.38,-29.0,27.7
2012-05-28 00:39:00,0.0,1.9020,0.0009,403.91,0.18,3.2,9.3,138.07,30.10,24.64,36.47,0.94,-1.59,-27.54,-56,537,-927,23.1,21.1,-0.4,22.9,1.7,-30.5,5.73,2.38,-29.0,27.7
2012-05-28 00:40:00,0.0,1.9021,0.0007,403.91,0.21,4.0,12.3,138.07,30.10,24.64,36.47,0.90,-0.70,-27.53,-56,537,-927,23.1,21.1,-0.4,22.9,1.7,-30.4,5.73,2.38,-29.0,27.8
2012-05-28 00:41:00,0.0,1.9020,0.0007,403.95,0.18,4.8,11.5,138.07,30.09,24.64,36.47,0.89,0.14,-27.53,-56,537,-928,23.0,20.9,-0.6,22.9,1.7,-30.6,5.73,2.39,-29.0,27.8
2012-05-28 00:42:00,0.0,1.9021,0.0009,404.00,0.20,5.9,12.6,138.07,30.09,24.64,36.47,0.87,0.95,-27.52,-56,537,-928,23.0,21.1,-0.4,22.9,1.7,-30.6,5.73,2.40,-29.0,27.8
2012-05-28 00:43:00,0.0,1.9020,0.0009,403.81,0.18,7.1,15.7,138.07,30.10,24.64,36.48,0.90,1.71,-27.52,-56,537,-927,23.0,20.8,-0.6,22.9,1.7,-30.7,5.73,2.39,-29.0,27.8
2012-05-28 00:44:00,0.0,1.9020,0.0010,403.91,0.19,4.8,9.4,138.07,30.10,24.64,36.47,0.92,2.42,-27.51,-56,537,-927,23.0,20.9,-0.6,22.9,1.7,-30.8,5.73,2.39,-29.0,27.8
2012-05-28 00:45:00,0.0,1.9019,0.0010,403.98,0.14,4.0,10.0,138.07,30.10,24.64,36.47,0.92,2.97,-27.51,-56,537,-928,23.0,21.1,-0.4,22.9,1.7,-30.8,5.73,2.38,-29.0,27.7
2012-05-28 00:46:00,0.0,1.9021,0.0008,403.91,0.19,9.2,18.2,138.06,30.10,24.64,36.48,0.95,3.39,-27.50,-56,537,-928,23.0,21.5,-0.2,22.9,1.7,-30.8,5.73,2.38,-29.0,27.8
2012-05-28 00:47:00,0.0,1.9022,0.0009,403.87,0.20,2.9,8.7,138.06,30.10,24.64,36.48,0.95,3.84,-27.50,-56,537,-927,23.0,21.2,-0.4,22.9,1.7,-30.9,5.73,2.38,-29.0,27.8
2012-05-28 00:48:00,0.0,1.9020,0.0008,403.91,0.17,5.3,13.1,138.06,30.10,24.64,36.47,0.95,4.31,-27.49,-56,537,-928,23.0,21.2,-0.4,22.9,1.6,-31.0,5.73,2.38,-29.0,27.8
2012-05-28 00:49:00,0.0,1.9023,0.0010,403.96,0.20,4.1,10.0,138.06,30.10,24.64,36.47,0.94,4.85,-27.48,-56,537,-928,23.0,21.0,-0.5,22.9,1.7,-30.9,5.73,2.39,-29.0,27.8
2012-05-28 00:50:00,0.0,1.9018,0.0009,403.99,0.19,4.1,12.9,138.06,30.10,24.64,36.47,0.91,5.39,-27.48,-56,537,-928,23.0,21.0,-0.5,22.9,1.6,-31.0,5.73,2.40,-29.0,27.7
2012-05-28 00:51:00,0.0,1.9021,0.0008,403.94,0.18,2.3,9.1,138.06,30.10,24.64,36.47,0.89,5.90,-27.47,-56,537,-928,23.0,21.2,-0.4,22.9,1.6,-31.1,5.73,2.39,-29.0,27.7
2012-05-28 00:52:00,0.0,1.9020,0.0009,403.96,0.17,3.5,10.2,138.07,30.11,24.64,36.47,0.89,6.38,-27.47,-56,537,-928,23.0,21.0,-0.5,22.9,1.6,-31.1,5.73,2.39,-29.0,27.8
2012-05-28 00:53:00,0.0,1.9016,0.0009,404.00,0.18,2.8,9.0,138.06,30.10,24.65,36.47,0.90,6.84,-27.46,-55,537,-927,23.0,20.9,-0.6,22.9,1.6,-31.2,5.73,2.38,-28.9,27.8
2012-05-28 00:54:00,0.0,1.9019,0.0008,403.89,0.18,1.5,8.8,138.06,30.10,24.64,36.48,0.90,7.29,-27.45,-56,537,-927,23.0,21.1,-0.5,22.9,1.6,-31.1,5.73,2.37,-29.0,27.8
2012-05-28 00:55:00,0.0,1.9020,0.0007,403.90,0.19,4.0,9.9,138.06,30.10,24.64,36.47,0.90,7.72,-27.44,-55,537,-927,23.0,21.0,-0.5,22.9,1.6,-31.1,5.73,2.38,-29.0,27.7
2012-05-28 00:56:00,0.0,1.9022,0.0010,403.90,0.17,4.1,10.5,138.06,30.10,24.64,36.47,0.92,8.13,-27.44,-56,537,-928,23.0,21.1,-0.5,22.9,1.6,-31.2,5.73,2.38,-29.0,27.7
2012-05-28 00:57:00,0.0,1.9018,0.0010,403.90,0.18,4.9,10.9,138.06,30.10,24.64,36.47,0.94,8.52,-27.43,-56,537,-927,23.0,20.7,-0.7,22.9,1.6,-31.1,5.73,2.39,-28.9,27.8
2012-05-28 00:58:00,0.0,1.9017,0.0007,403.97,0.18,2.8,9.1,138.06,30.10,24.64,36.47,0.94,8.89,-27.43,-55,537,-927,23.0,20.6,-0.8,22.9,1.6,-31.2,5.73,2.39,-29.0,27.8
2012-05-28 00:59:00,0.0,1.9020,0.0009,403.96,0.16,2.2,8.7,138.06,30.10,24.64,36.47,0.95,9.25,-27.42,-55,537,-927,23.0,21.2,-0.4,22.9,1.6,-31.1,5.73,2.38,-29.0,27.8
2012-05-28 01:00:00,0.0,1.9021,0.0010,404.04,0.21,4.3,13.1,138.06,30.10,24.64,36.47,0.95,9.61,-27.42,-55,537,-928,23.0,21.3,-0.3,22.9,1.6,-31.1,5.73,2.38,-29.0,27.8
2012-05-28 01:01:00,0.0,1.9020,0.0008,403.90,0.22,3.4,9.9,138.06,30.10,24.64,36.48,0.93,9.96,-27.41,-55,537,-927,23.0,21.3,-0.3,22.9,1.6,-31.2,5.73,2.37,-29.0,27.8
2012-05-28 01:02:00,0.0,1.9016,0.0009,404.00,0.15,4.9,14.4,138.06,30.10,24.64,36.47,0.91,10.30,-27.40,-55,537,-927,23.0,20.8,-0.6,22.9,1.6,-31.1,5.73,2.37,-29.0,27.8
2012-05-28 01:03:00,0.0,1.9015,0.0008,404.00,0.19,7.8,15.0,138.06,30.10,24.65,36.47,0.92,10.62,-27.40,-55,537,-927,22.9,20.2,-1.1,22.9,1.6,-31.2,5.73,2.38,-29.0,27.8
2012-05-28 01:04:00,0.0,1.9016,0.0008,403.95,0.20,3.2,10.5,138.06,30.10,24.64,36.47,0.90,10.94,-27.39,-55,537,-927,23.0,20.8,-0.7,22.9,1.6,-31.2,5.73,2.39,-29.0,27.7
2012-05-28 01:05:00,0.0,1.9017,0.0009,403.98,0.18,6.3,14.0,138.06,30.10,24.64,36.47,0.89,11.24,-27.39,-55,537,-928,23.0,21.4,-0.3,22.9,1.6,-31.1,5.73,2.39,-29.0,27.7
2012-05-28 01:06:00,0.0,1.9017,0.0007,403.94,0.20,3.2,11.0,138.06,30.10,24.64,36.48,0.91,11.53,-27.38,-55,537,-928,23.0,21.2,-0.4,22.9,1.6,-31.1,5.73,2.38,-28.9,27.8
2012-05-28 01:07:00,0.0,1.9015,0.0009,403.95,0.24,5.4,11.4,138.06,30.10,24.64,36.47,0.92,11.81,-27.37,-55,537,-927,22.9,21.4,-0.3,22.9,1.6,-31.2,5.73,2.37,-29.0,27.8
2012-05-28 01:08:00,0.0,1.9019,0.0009,403.94,0.19,2.7,9.4,138.06,30.10,24.64,36.48,0.91,12.08,-27.37,-55,537,-928,22.9,21.6,-0.2,22.9,1.6,-31.1,5.73,2.37,-28.9,27.8
2012-05-28 01:09:00,0.0,1.9017,0.0009,403.89,0.18,3.4,13.7,138.06,30.10,24.64,36.48,0.93,12.33,-27.36,-55,537,-928,22.9,21.2,-0.4,22.9,1.6,-31.2,5.73,2.38,-28.9,27.8
2012-05-28 01:10:00,0.0,1.9013,0.0008,403.95,0.21,3.4,9.8,138.06,30.10,24.64,36.47,0.93,12.59,-27.35,-55,537,-928,22.9,21.0,-0.6,22.9,1.6,-31.2,5.73,2.38,-28.9,27.8
2012-05-28 01:11:00,0.0,1.9018,0.0008,403.97,0.20,4.3,12.9,138.06,30.11,24.64,36.47,0.94,12.82,-27.35,-55,537,-928,23.0,20.7,-0.7,22.9,1.6,-31.2,5.73,2.39,-28.9,27.8
2012-05-28 01:12:00,0.0,1.9017,0.0007,403.97,0.18,2.5,9.1,138.06,30.11,24.64,36.47,0.95,13.05,-27.34,-55,537,-927,23.0,21.1,-0.5,22.9,1.6,-31.3,5.73,2.39,-28.9,27.8
2012-05-28 01:13:00,0.0,1.9017,0.0008,403.95,0.18,2.0,9.1,138.06,30.11,24.64,36.48,0.95,13.26,-27.33,-55,537,-927,22.9,20.6,-0.9,22.9,1.6,-31.3,5.73,2.38,-29.0,27.8
2012-05-28 01:14:00,0.0,1.9017,0.0008,404.00,0.19,7.6,13.9,138.06,30.11,24.64,36.47,0.95,13.47,-27.33,-55,537,-928,22.9,20.8,-0.7,22.9,1.6,-31.3,5.73,2.37,-28.9,27.8
2012-05-28 01:15:00,0.0,1.9014,0.0008,403.95,0.19,4.3,12.2,138.06,30.11,24.65,36.47,0.94,13.68,-27.33,-55,537,-928,23.0,20.6,-0.8,22.9,1.6,-31.3,5.73,2.37,-28.9,27.8
2012-05-28 01:16:00,0.0,1.9015,0.0008,403.83,0.19,2.0,7.7,138.06,30.11,24.64,36.48,0.94,13.87,-27.32,-55,537,-927,23.0,20.2,-1.1,22.9,1.6,-31.3,5.73,2.38,-28.9,27.8
2012-05-28 01:17:00,0.0,1.9019,0.0008,403.96,0.18,4.2,11.0,138.06,30.11,24.64,36.47,0.90,14.05,-27.31,-55,537,-927,23.0,20.3,-1.0,22.9,1.6,-31.3,5.73,2.39,-29.0,27.8
2012-05-28 01:18:00,0.0,1.9016,0.0008,403.97,0.20,3.3,12.4,138.06,30.11,24.64,36.47,0.91,14.22,-27.31,-55,537,-927,23.0,20.0,-1.2,22.9,1.6,-31.3,5.73,2.39,-29.0,27.8
2012-05-28 01:19:00,0.0,1.9012,0.0008,403.93,0.18,3.1,9.8,138.06,30.11,24.65,36.47,0.88,14.39,-27.31,-55,537,-928,23.0,20.0,-1.2,22.9,1.6,-31.4,5.73,2.38,-29.0,27.8
2012-05-28 01:20:00,0.0,1.9015,0.0008,403.88,0.16,7.1,15.1,138.06,30.11,24.64,36.47,0.93,14.55,-27.31,-55,537,-928,23.0,20.8,-0.7,22.9,1.6,-31.3,5.73,2.38,-29.0,27.8
2012-05-28 01:21:00,0.0,1.9014,0.0010,403.82,0.18,7.2,16.1,138.06,30.11,24.64,36.47,0.92,14.71,-27.31,-55,537,-928,23.0,21.2,-0.4,22.9,1.6,-31.3,5.73,2.37,-29.0,27.8
2012-05-28 01:22:00,0.0,1.9010,0.0007,403.88,0.15,4.1,14.5,138.06,30.11,24.64,36.47,0.91,14.86,-27.31,-55,537,-927,22.9,19.5,-1.5,22.9,1.6,-31.4,5.73,2.37,-29.0,27.8
2012-05-28 01:23:00,0.0,1.9008,0.0009,403.85,0.20,5.1,12.1,138.06,30.11,24.64,36.47,0.92,15.00,-27.31,-55,537,-927,22.9,19.2,-1.8,22.9,1.6,-31.3,5.73,2.38,-29.0,27.8
2012-05-28 01:24:00,0.0,1.9010,0.0009,403.83,0.20,3.9,11.3,138.06,30.11,24.64,36.47,0.93,15.14,-27.31,-55,537,-928,22.9,19.4,-1.7,22.9,1.6,-31.3,5.73,2.39,-29.0,27.9
2012-05-28 01:25:00,0.0,1.9017,0.0010,403.80,0.23,3.5,12.6,138.06,30.11,24.64,36.47,0.93,15.26,-27.30,-55,537,-928,22.9,20.4,-0.9,22.8,1.6,-31.3,5.73,2.39,-29.0,27.8
2012-05-28 01:26:00,0.0,1.9016,0.0010,403.87,0.21,1.3,4.6,138.06,30.11,24.64,36.47,0.93,15.39,-27.30,-55,537,-928,22.9,20.4,-0.9,22.9,1.6,-31.3,5.73,2.38,-29.0,27.8
2012-05-28 01:27:00,0.0,1.9011,0.0008,403.76,0.26,2.9,10.3,138.06,30.11,24.64,36.48,0.94,15.51,-27.30,-55,537,-928,22.9,20.9,-0.6,22.8,1.6,-31.3,5.73,2.37,-29.0,27.9
2012-05-28 01:28:00,0.0,1.9011,0.0007,403.89,0.20,1.8,7.7,138.06,30.11,24.64,36.47,0.95,15.63,-27.29,-55,537,-927,22.9,20.2,-1.1,22.8,1.6,-31.3,5.73,2.37,-29.0,27.9
2012-05-28 01:29:00,0.0,1.9010,0.0007,403.84,0.16,7.7,18.3,138.06,30.11,24.64,36.47,0.95,15.73,-27.29,-55,537,-927,22.9,20.0,-1.2,22.8,1.6,-31.4,5.73,2.38,-29.0,27.9
2012-05-28 01:30:00,0.0,1.9007,0.0011,403.82,0.17,6.7,13.2,138.06,30.11,24.64,36.47,0.95,15.84,-27.28,-55,537,-927,22.9,20.3,-1.1,22.8,1.6,-31.4,5.73,2.38,-29.0,27.9
2012-05-28 01:31:00,0.0,1.9009,0.0008,403.83,0.21,2.0,8.1,138.06,30.11,24.64,36.47,0.92,15.94,-27.29,-55,537,-928,22.9,20.5,-0.9,22.8,1.6,-31.4,5.73,2.40,-29.0,27.9
2012-05-28 01:32:00,0.0,1.9011,0.0009,403.84,0.20,5.3,10.4,138.06,30.11,24.64,36.47,0.92,16.03,-27.28,-55,537,-928,22.9,21.1,-0.5,22.8,1.6,-31.4,5.73,2.39,-29.0,27.9
2012-05-28 01:33:00,0.0,1.9012,0.0009,403.96,0.18,4.2,11.3,138.06,30.11,24.64,36.47,0.92,16.13,-27.28,-55,537,-927,22.9,20.4,-0.9,22.8,1.6,-31.3,5.73,2.38,-29.0,27.9
2012-05-28 01:34:00,0.0,1.9013,0.0008,403.90,0.19,4.6,11.1,138.06,30.11,24.64,36.47,0.89,16.21,-27.28,-55,537,-927,22.9,20.5,-0.9,22.8,1.6,-31.3,5.73,2.37,-29.1,27.9
2012-05-28 01:35:00,0.0,1.9012,0.0009,403.90,0.21,5.4,12.4,138.06,30.12,24.64,36.47,0.90,16.29,-27.27,-55,537,-927,22.9,20.4,-0.9,22.8,1.6,-31.4,5.73,2.37,-29.1,27.9
2012-05-28 01:36:00,0.0,1.9015,0.0008,403.93,0.18,3.4,10.3,138.06,30.12,24.64,36.47,0.90,16.37,-27.28,-55,537,-928,22.9,20.5,-0.9,22.8,1.6,-31.4,5.73,2.38,-29.1,27.9
2012-05-28 01:37:00,0.0,1.9012,0.0009,403.87,0.18,1.7,7.7,138.06,30.11,24.64,36.47,0.90,16.45,-27.27,-55,537,-928,22.9,20.4,-0.9,22.8,1.6,-31.3,5.73,2.39,-29.1,27.9
2012-05-28 01:38:00,0.0,1.9010,0.0008,403.79,0.20,2.3,9.3,138.06,30.11,24.65,36.48,0.92,16.53,-27.27,-55,537,-927,22.9,20.7,-0.7,22.8,1.6,-31.4,5.73,2.39,-29.1,27.9
2012-05-28 01:39:00,0.0,1.9014,0.0009,403.87,0.18,2.9,8.9,138.06,30.12,24.64,36.47,0.92,16.60,-27.27,-55,537,-927,22.9,20.1,-1.2,22.9,1.6,-31.3,5.73,2.38,-29.0,27.9
2012-05-28 01:40:00,0.0,1.9014,0.0008,403.76,0.19,2.9,11.6,138.06,30.12,24.64,36.47,0.93,16.66,-27.26,-55,537,-927,22.9,19.2,-1.8,22.8,1.6,-31.3,5.73,2.37,-29.0,27.9
2012-05-28 01:41:00,0.0,1.9010,0.0009,403.70,0.19,2.4,8.5,138.06,30.12,24.64,36.47,0.92,16.73,-27.26,-55,537,-928,22.9,19.5,-1.6,22.8,1.6,-31.4,5.73,2.37,-29.1,27.9
2012-05-28 01:42:00,0.0,1.9009,0.0008,403.79,0.16,2.6,9.5,138.06,30.12,24.64,36.47,0.93,16.79,-27.26,-55,537,-927,22.9,19.7,-1.4,22.8,1.6,-31.3,5.73,2.37,-29.0,27.9
2012-05-28 01:43:00,0.0,1.9013,0.0008,403.81,0.17,4.5,12.7,138.06,30.12,24.64,36.48,0.94,16.85,-27.26,-55,537,-927,22.9,20.3,-1.1,22.8,1.6,-31.3,5.73,2.39,-29.0,27.9
2012-05-28 01:44:00,0.0,1.9015,0.0009,403.79,0.20,1.7,9.7,138.06,30.12,24.64,36.48,0.94,16.91,-27.25,-55,537,-927,22.9,20.9,-0.7,22.8,1.6,-31.3,5.73,2.40,-29.0,27.9
2012-05-28 01:45:00,0.0,1.9018,0.0009,403.76,0.21,5.3,15.9,138.06,30.12,24.64,36.48,0.95,16.96,-27.25,-55,537,-927,22.9,21.0,-0.6,22.8,1.6,-31.4,5.73,2.39,-29.0,27.9
2012-05-28 01:46:00,0.0,1.9013,0.0009,403.67,0.20,0.9,5.3,138.06,30.12,24.64,36.48,0.94,17.01,-27.26,-55,537,-928,22.9,20.2,-1.1,22.8,1.6,-31.4,5.73,2.37,-29.0,27.9
2012-05-28 01:47:00,0.0,1.9013,0.0008,403.74,0.22,4.3,13.0,138.06,30.12,24.64,36.48,0.92,17.06,-27.25,-55,537,-928,22.9,20.4,-0.9,22.8,1.6,-31.4,5.73,2.37,-29.0,28.0
2012-05-28 01:48:00,0.0,1.9011,0.0010,403.85,0.22,3.2,12.4,138.06,30.12,24.64,36.47,0.90,17.11,-27.25,-55,537,-927,22.9,19.8,-1.4,22.8,1.6,-31.4,5.73,2.37,-29.1,27.9
2012-05-28 01:49:00,0.0,1.9015,0.0008,403.74,0.23,3.0,10.2,138.06,30.12,24.64,36.48,0.90,17.15,-27.25,-55,537,-927,22.9,20.2,-1.1,22.8,1.6,-31.4,5.73,2.38,-29.1,27.9
2012-05-28 01:50:00,0.0,1.9013,0.0007,403.80,0.19,1.6,5.4,138.06,30.12,24.64,36.47,0.89,17.20,-27.25,-55,537,-927,22.9,19.8,-1.4,22.8,1.6,-31.4,5.73,2.39,-29.1,27.9
2012-05-28 01:51:00,0.0,1.9013,0.0009,403.65,0.20,1.2,6.5,138.06,30.13,24.64,36.48,0.90,17.24,-27.25,-55,537,-928,22.9,20.4,-1.0,22.8,1.6,-31.4,5.73,2.39,-29.1,27.9
2012-05-28 01:52:00,0.0,1.9008,0.0009,403.63,0.22,0.9,5.6,138.06,30.13,24.64,36.48,0.90,17.28,-27.24,-55,537,-928,22.9,19.3,-1.7,22.8,1.6,-31.3,5.73,2.38,-29.1,27.9
2012-05-28 01:53:00,0.0,1.9007,0.0010,403.69,0.22,1.2,7.1,138.06,30.13,24.64,36.47,0.91,17.32,-27.25,-55,537,-927,23.0,19.4,-1.7,22.8,1.6,-31.4,5.73,2.37,-29.1,27.9
2012-05-28 01:54:00,0.0,1.9011,0.0009,403.58,0.20,4.6,10.6,138.06,30.13,24.64,36.48,0.91,17.35,-27.24,-55,537,-928,22.9,19.9,-1.3,22.8,1.6,-31.3,5.73,2.37,-29.1,27.9
2012-05-28 01:55:00,0.0,1.9012,0.0008,403.60,0.22,-0.3,2.8,138.06,30.13,24.64,36.48,0.93,17.39,-27.25,-55,537,-928,22.9,19.6,-1.5,22.8,1.6,-31.4,5.73,2.38,-29.1,27.9
2012-05-28 01:56:00,0.0,1.9016,0.0008,403.65,0.17,3.1,8.6,138.06,30.13,24.64,36.48,0.92,17.42,-27.25,-55,537,-928,22.9,20.2,-1.1,22.8,1.6,-31.4,5.73,2.39,-29.1,27.9
2012-05-28 01:57:00,0.0,1.9012,0.0007,403.61,0.21,2.0,11.2,138.06,30.13,24.64,36.48,0.94,17.46,-27.24,-55,537,-928,22.9,20.3,-1.0,22.8,1.6,-31.4,5.73,2.39,-29.1,27.9
2012-05-28 01:58:00,0.0,1.9012,0.0008,403.68,0.19,1.4,6.2,138.06,30.13,24.64,36.47,0.93,17.49,-27.24,-55,537,-928,22.9,20.0,-1.2,22.8,1.6,-31.4,5.73,2.39,-29.1,27.9
2012-05-28 01:59:00,0.0,1.9014,0.0007,403.67,0.20,3.2,10.7,138.06,30.12,24.64,36.47,0.94,17.52,-27.24,-55,537,-928,22.9,19.6,-1.5,22.8,1.6,-31.4,5.73,2.37,-29.1,27.9
2012-05-28 02:00:00,0.0,1.9011,0.0009,403.68,0.15,5.0,12.9,138.06,30.12,24.64,36.47,0.95,17.55,-27.24,-55,537,-928,22.9,19.4,-1.6,22.8,1.6,-31.4,5.73,2.37,-29.1,27.9
2012-05-28 02:01:00,0.0,1.9013,0.0009,403.62,0.21,0.4,5.7,138.06,30.12,24.64,36.47,0.94,17.58,-27.24,-55,537,-927,22.9,19.6,-1.5,22.8,1.6,-31.3,5.73,2.37,-29.1,27.9
2012-05-28 02:02:00,0.0,1.9014,0.0009,403.69,0.20,2.2,7.2,138.06,30.13,24.64,36.47,0.95,17.61,-27.24,-55,537,-927,22.9,19.8,-1.4,22.9,1.6,-31.4,5.73,2.38,-29.1,27.9
2012-05-28 02:03:00,0.0,1.9010,0.0008,403.68,0.18,5.4,12.6,138.06,30.13,24.64,36.48,0.93,17.63,-27.24,-55,537,-928,22.9,20.0,-1.2,22.9,1.6,-31.3,5.73,2.39,-29.1,27.9
2012-05-28 02:04:00,0.0,1.9011,0.0010,403.63,0.21,2.6,10.4,138.06,30.13,24.64,36.47,0.93,17.65,-27.24,-55,537,-928,22.9,19.9,-1.3,22.9,1.6,-31.3,5.73,2.39,-29.1,27.9
2012-05-28 02:05:00,0.0,1.9016,0.0010,403.64,0.19,1.8,7.5,138.06,30.13,24.64,36.47,0.90,17.68,-27.24,-55,537,-928,22.9,20.1,-1.2,22.8,1.6,-31.3,5.73,2.38,-29.1,27.9
2012-05-28 02:06:00,0.0,1.9013,0.0011,403.70,0.19,3.1,9.9,138.06,30.13,24.64,36.47,0.89,17.70,-27.24,-55,537,-928,22.9,19.9,-1.3,22.9,1.6,-31.3,5.73,2.37,-29.1,27.9
2012-05-28 02:07:00,0.0,1.9014,0.0007,403.65,0.19,3.0,9.0,138.06,30.12,24.64,36.47,0.90,17.72,-27.24,-55,537,-928,23.0,19.8,-1.4,22.8,1.6,-31.4,5.73,2.37,-29.1,28.0
2012-05-28 02:08:00,0.0,1.9016,0.0007,403.65,0.17,2.5,9.5,138.06,30.12,24.64,36.47,0.90,17.74,-27.24,-55,537,-927,22.9,20.5,-0.9,22.8,1.6,-31.3,5.73,2.38,-29.1,27.9
2012-05-28 02:09:00,0.0,1.9015,0.0007,403.60,0.19,3.1,8.6,138.06,30.12,24.64,36.47,0.91,17.75,-27.24,-55,537,-928,22.9,19.9,-1.3,22.8,1.6,-31.4,5.73,2.39,-29.1,27.9
2012-05-28 02:10:00,0.0,1.9009,0.0009,403.46,0.18,5.0,13.9,138.06,30.12,24.65,36.48,0.92,17.78,-27.23,-55,537,-928,22.9,19.6,-1.5,22.8,1.6,-31.4,5.73,2.40,-29.1,27.9
2012-05-28 02:11:00,0.0,1.9013,0.0008,403.51,0.18,1.8,9.7,138.06,30.12,24.64,36.47,0.91,17.80,-27.23,-55,537,-928,22.9,19.7,-1.5,22.8,1.6,-31.3,5.73,2.38,-29.1,27.9
2012-05-28 02:12:00,0.0,1.9008,0.0008,403.46,0.17,1.8,8.4,138.06,30.12,24.64,36.48,0.93,17.81,-27.23,-55,537,-928,23.0,19.3,-1.7,22.9,1.6,-31.3,5.73,2.37,-29.1,27.9
2012-05-28 02:13:00,0.0,1.9009,0.0008,403.59,0.18,4.1,14.3,138.06,30.12,24.64,36.47,0.93,17.83,-27.23,-55,537,-928,23.0,19.0,-1.9,22.9,1.6,-31.3,5.73,2.37,-29.1,27.9
2012-05-28 02:14:00,0.0,1.9007,0.0009,403.41,0.20,2.6,9.0,138.06,30.12,24.64,36.47,0.93,17.85,-27.22,-55,537,-928,23.0,18.6,-2.1,22.9,1.6,-31.3,5.73,2.38,-29.1,27.9
2012-05-28 02:15:00,0.0,1.9008,0.0008,403.50,0.19,4.4,14.4,138.06,30.12,24.64,36.47,0.94,17.86,-27.23,-55,537,-928,23.0,18.7,-2.1,22.9,1.6,-31.3,5.73,2.39,-29.1,27.9
2012-05-28 02:16:00,0.0,1.9007,0.0006,403.39,0.18,4.9,13.9,138.06,30.12,24.64,36.47,0.94,17.87,-27.23,-55,537,-928,23.0,18.8,-2.1,22.9,1.6,-31.3,5.73,2.39,-29.1,27.9
2012-05-28 02:17:00,0.0,1.9011,0.0009,403.33,0.20,2.2,8.7,138.06,30.12,24.64,36.48,0.94,17.89,-27.23,-55,537,-928,23.0,18.5,-2.3,22.9,1.6,-31.3,5.73,2.39,-29.1,27.9
2012-05-28 02:18:00,0.0,1.9007,0.0008,403.42,0.19,1.8,8.2,138.06,30.12,24.64,36.48,0.95,17.90,-27.23,-55,537,-928,23.0,19.0,-1.9,22.9,1.6,-31.4,5.73,2.38,-29.1,27.9
2012-05-28 02:19:00,0.0,1.9003,0.0008,403.24,0.20,4.8,13.3,138.06,30.12,24.64,36.47,0.97,17.71,-27.23,-55,537,-927,23.0,17.7,-2.8,22.9,1.6,-31.3,5.73,2.37,-29.1,27.9
2012-05-28 02:20:00,0.0,1.8999,0.0007,403.15,0.20,3.7,11.8,138.06,30.12,24.64,36.47,1.00,16.14,-27.24,-55,537,-927,23.0,17.4,-3.1,22.9,1.6,-31.3,5.73,2.37,-29.1,27.9
2012-05-28 02:21:00,0.0,1.8996,0.0007,403.11,0.22,0.1,4.5,138.06,30.13,24.64,36.48,1.09,13.89,-27.24,-55,537,-927,23.0,17.3,-3.1,22.9,1.6,-31.5,5.73,2.38,-29.1,27.9